| time (UTC) | temp C | wind direction | speed KPH | gust KPH | rain 1hr cm | rain 24hr cm | rain mn cm | humidity % | barometer mb |
| 20260504223044 | 6 | 246 | 14.5 | 29.0 | 0.00 | 0.64 | 0.18 | 87 | 1006.4 |
| 20260504221538 | 6 | 270 | 14.5 | 30.6 | 0.00 | 0.64 | 0.18 | 85 | 1006.5 |
| 20260504220037 | 6 | 337 | 12.9 | 29.0 | 0.00 | 0.64 | 0.18 | 85 | 1006.2 |
| 20260504214534 | 6 | 248 | 14.5 | 38.6 | 0.00 | 0.76 | 0.18 | 84 | 1005.9 |
| 20260504213053 | 7 | 240 | 16.1 | 30.6 | 0.00 | 0.76 | 0.18 | 82 | 1005.7 |
| 20260504211532 | 7 | 246 | 14.5 | 29.0 | 0.00 | 0.76 | 0.18 | 79 | 1005.5 |
| 20260504210031 | 8 | 246 | 14.5 | 29.0 | 0.00 | 0.76 | 0.18 | 75 | 1005.4 |
| 20260504204531 | 8 | 269 | 14.5 | 30.6 | 0.00 | 0.89 | 0.18 | 74 | 1005.5 |
| 20260504203034 | 9 | 288 | 17.7 | 35.4 | 0.00 | 0.89 | 0.18 | 72 | 1005.3 |
| 20260504201508 | 9 | 255 | 14.5 | 33.8 | 0.00 | 0.89 | 0.18 | 72 | 1005.2 |
| 20260504200004 | 9 | 252 | 17.7 | 37.0 | 0.00 | 0.89 | 0.18 | 72 | 1005.1 |
| 20260504194504 | 10 | 243 | 22.5 | 38.6 | 0.00 | 1.09 | 0.18 | 70 | 1005.0 |
| 20260504193003 | 10 | 264 | 16.1 | 33.8 | 0.00 | 1.09 | 0.18 | 69 | 1004.8 |
| 20260504191502 | 10 | 269 | 19.3 | 35.4 | 0.00 | 1.09 | 0.18 | 63 | 1004.9 |
| 20260504190119 | 10 | 234 | 14.5 | 29.0 | 0.00 | 1.09 | 0.18 | 62 | 1004.6 |
| 20260504184608 | 10 | 282 | 16.1 | 33.8 | 0.00 | 1.27 | 0.18 | 62 | 1004.4 |
| 20260504183057 | 11 | 228 | 20.9 | 35.4 | 0.00 | 1.27 | 0.18 | 56 | 1004.3 |
| 20260504181558 | 13 | 219 | 16.1 | 29.0 | 0.00 | 1.27 | 0.18 | 52 | 1004.2 |
| 20260504180055 | 15 | 248 | 11.3 | 33.8 | 0.00 | 1.27 | 0.18 | 38 | 1004.3 |
| 20260504174602 | 15 | 30 | 14.5 | 37.0 | 0.00 | 1.60 | 0.18 | 37 | 1004.3 |
| 20260504173056 | 15 | 303 | 12.9 | 37.0 | 0.00 | 1.60 | 0.18 | 38 | 1004.3 |
| 20260504171551 | 14 | 224 | 16.1 | 32.2 | 0.00 | 1.60 | 0.18 | 39 | 1004.2 |
| 20260504081510 | 3 | 243 | 4.8 | 17.7 | 0.00 | 1.91 | 0.18 | 93 | 996.6 |
| 20260504044554 | 2 | 268 | 8.0 | 32.2 | 0.05 | 1.85 | 0.15 | 94 | 991.6 |
| 20260504043039 | 2 | 259 | 8.0 | 32.2 | 0.05 | 1.83 | 0.13 | 94 | 991.1 |
| 20260504041533 | 2 | 347 | 9.7 | 25.7 | 0.08 | 1.83 | 0.13 | 94 | 990.8 |
| 20260504040033 | 2 | 226 | 9.7 | 27.4 | 0.08 | 1.83 | 0.10 | 94 | 990.5 |
| 20260504034538 | 2 | 304 | 8.0 | 32.2 | 0.08 | 1.80 | 0.08 | 94 | 989.9 |
| 20260504033036 | 2 | 302 | 8.0 | 30.6 | 0.08 | 1.78 | 0.05 | 94 | 989.5 |
| 20260504031523 | 2 | 254 | 11.3 | 30.6 | 0.05 | 1.75 | 0.05 | 94 | 989.1 |
| 20260504030018 | 2 | 278 | 8.0 | 24.1 | 0.03 | 1.73 | 0.00 | 94 | 988.6 |
| 20260504024521 | 2 | 294 | 6.4 | 29.0 | 0.03 | 1.73 | 1.73 | 94 | 988.1 |
| 20260504023013 | 2 | 251 | 6.4 | 22.5 | 0.03 | 1.70 | 1.70 | 94 | 987.7 |
| 20260504021513 | 3 | 352 | 8.0 | 17.7 | 0.03 | 1.70 | 1.70 | 93 | 987.1 |
| 20260504020015 | 3 | 218 | 4.8 | 19.3 | 0.05 | 1.70 | 1.70 | 94 | 986.4 |
| 20260504014515 | 3 | 338 | 4.8 | 20.9 | 0.05 | 1.70 | 1.70 | 94 | 985.7 |
| 20260504013011 | 3 | 264 | 8.0 | 20.9 | 0.03 | 1.68 | 1.68 | 94 | 984.7 |
| 20260504011512 | 2 | 63 | 4.8 | 27.4 | 0.03 | 1.65 | 1.65 | 94 | 983.7 |
| 20260504010010 | 2 | 119 | 6.4 | 29.0 | 0.03 | 1.65 | 1.65 | 94 | 982.9 |
| 20260504004511 | 2 | 319 | 8.0 | 27.4 | 0.03 | 1.65 | 1.65 | 94 | 983.0 |
| 20260504003008 | 3 | 203 | 8.0 | 24.1 | 0.05 | 1.65 | 1.65 | 94 | 982.3 |
| 20260504001505 | 3 | 320 | 4.8 | 24.1 | 0.05 | 1.65 | 1.65 | 95 | 981.4 |
| 20260504000004 | 4 | 182 | 4.8 | 22.5 | 0.05 | 1.65 | 1.65 | 95 | 980.0 |
| 20260503234505 | 4 | 326 | 6.4 | 24.1 | 0.10 | 1.65 | 1.65 | 95 | 979.5 |
| 20260503233005 | 4 | 144 | 4.8 | 22.5 | 0.15 | 1.63 | 1.63 | 95 | 979.0 |
| 20260503231502 | 4 | 134 | 4.8 | 14.5 | 0.25 | 1.60 | 1.60 | 95 | 979.1 |
| 20260503230002 | 5 | 333 | 3.2 | 17.7 | 0.33 | 1.57 | 1.57 | 95 | 978.9 |
| 20260503224600 | 5 | 141 | 4.8 | 19.3 | 0.33 | 1.55 | 1.55 | 95 | 979.2 |